Regional Weather Roundup
Issued by NWS

Home | Current Version | Previous Version | Graphics & Text | Print | Product List | Glossary On
Versions: 1 2 3 4 5 6 7 8 9 10 11 12 13 14 15 16 17 18 19 20 21 22 23 24 25 26 27 28 29 30 31 32 33 34 35 36 37 38 39 40 41 42 43 44 45 46 47 48 49 50
000
ASUS43 KFSD 280310
RWRSD

WEATHER ROUNDUP FOR SOUTH DAKOTA
NATIONAL WEATHER SERVICE SIOUX FALLS SD
1000 PM CDT WED JUL 27 2016

NOTE: "FAIR" INDICATES FEW OR NO CLOUDS BELOW 12,000 FEET WITH NO
SIGNIFICANT WEATHER AND/OR OBSTRUCTIONS TO VISIBILITY.


SDZ001>005-009-010-012>017-280400-
NORTHWEST AND NORTH CENTRAL SOUTH DAKOTA

CITY           SKY/WX    TMP DP  RH WIND       PRES   REMARKS
BUFFALO          N/A     67  57  70 E10       30.08R
FAITH            N/A     64  58  80 E6        30.13R
MOBRIDGE       CLOUDY    72  60  66 NE8       30.07S
$$

SDZ012>016-024>037-041>051-057-063-072>074-280400-
SOUTHWEST AND SOUTH CENTRAL SOUTH DAKOTA

CITY           SKY/WX    TMP DP  RH WIND       PRES   REMARKS
RAPID CTY ARPT PTCLDY    67  58  72 E5        30.15R
PIERRE         PTCLDY    69  63  81 N6        30.06R
CUSTER         CLOUDY    59  56  89 E12       30.26F
ELLSWORTH AFB  MOCLDY    70  62  74 E6        30.15R
PHILIP         CLEAR     65  61  87 CALM      30.10R
PINE RIDGE     CLOUDY    69  64  84 NE7       30.16R
WINNER         FAIR      66  62  87 S10       30.02F
$$

SDZ004>011-016>023-039-040-280400-
NORTHEAST SOUTH DAKOTA

CITY           SKY/WX    TMP DP  RH WIND       PRES   REMARKS
ABERDEEN       CLOUDY    69  61  75 NE3       30.07R
WATERTOWN      CLOUDY    65  59  81 NE5       30.07S
BROOKINGS      CLOUDY    67  61  81 N3        30.06R
SISSETON         N/A     62  60  93 N6        30.05R
$$

SDZ017-020-022-023-036>040-048>070-280400-
SOUTHEAST SOUTH DAKOTA

CITY           SKY/WX    TMP DP  RH WIND       PRES   REMARKS
SIOUX FALLS    CLOUDY    71  64  78 N7        30.03S
HURON          MOCLDY    72  61  68 N9        30.03F
CHAMBERLAIN    CLOUDY    73  66  76 E5        30.02F
MITCHELL       CLOUDY    73  65  75 NE6       30.03S
YANKTON        MOCLDY    75  63  64 NE7       30.00R
$$

ABBREVIATIONS USED IN REMARKS
   TC - TEMPERATURE IN CELSIUS
  WCI - WIND CHILL INDEX
   HX - HEAT INDEX
  VSB - VISIBILITY





USA.gov is the U.S. government's official web portal to all federal, state and local government web resources and services.